RH
67 54 50 47 44 43 42 40 38 39 41 43 43 41 40 38 37 36 36 34 33 44 67 85 80 78 78 78 74 70 71 78 73 71 76 81 79 77 77 75 74 72 73
61 55 50 47 45 42 41 41 43 44 45 46 44 42 40 38 38 36 34 36 47 63 80 75 71 70 74 74 70 65 76 70 67 66 67 80 81 80 76 72 68 68 70
57 52 50 47 44 43 42 44 47 49 49 48 46 43 40 38 36 33 32 35 62 72 72 74 76 76 73 69 66 63 64 64 63 59 59 72 72 73 70 70 70 69 69
56 54 51 43 40 42 46 48 49 48 47 48 48 44 39 36 34 33 31 31 58 71 63 65 61 51 50 51 51 50 52 52 53 53 61 64 61 60 61 67 67 67 68
60 52 43 40 45 47 48 49 49 45 43 46 46 44 39 37 36 34 34 33 32 30 30 30 32 34 48 55 53 49 47 49 49 50 58 55 53 56 57 56 60 62 63
55 46 43 46 50 49 49 46 42 44 46 48 46 44 42 40 39 36 35 33 32 32 30 30 29 30 36 34 43 50 47 48 48 48 48 50 54 54 53 54 53 54 57
50 47 48 50 50 46 43 44 44 46 47 49 51 51 47 45 42 37 35 36 36 34 34 33 32 32 32 32 34 49 48 46 46 46 46 48 47 50 52 52 53 54 56
51 50 49 46 42 35 32 33 36 46 55 55 53 58 72 60 51 41 39 39 37 36 36 35 33 36 37 37 37 38 47 47 44 43 44 44 45 46 50 52 53 53 54
50 48 41 30 26 23 22 24 31 42 52 54 54 55 72 73 64 54 42 40 38 39 32 33 32 37 32 39 39 38 37 38 47 48 45 45 45 47 51 53 54 54 56
46 37 30 24 22 21 25 33 43 46 57 59 55 54 55 54 69 70 48 44 42 40 38 35 35 36 38 40 39 37 41 50 49 63 56 53 53 54 56 55 55 57 57
35 30 26 25 20 19 22 39 51 56 55 53 58 58 57 57 57 61 66 50 45 44 44 41 41 42 44 40 38 40 60 65 60 68 72 70 66 63 61 59 59 56 56
32 30 28 22 18 33 44 52 54 51 52 48 49 52 55 58 57 58 71 64 61 52 47 46 48 48 46 47 50 52 54 78 77 75 74 72 70 66 62 59 55 54 56
33 31 28 25 37 44 46 56 54 57 56 51 52 56 56 58 62 59 62 65 66 56 52 50 51 50 50 52 52 49 46 46 51 70 70 69 69 69 63 60 62 62 61
31 30 24 24 44 37 26 46 60 61 61 60 63 64 61 61 66 65 60 60 74 69 59 63 56 54 54 49 44 38 34 36 49 69 70 70 68 70 69 68 66 68 66
30 29 28 41 28 27 33 42 51 64 69 64 59 68 68 63 65 62 60 62 65 87 82 62 61 56 49 43 42 37 43 45 64 73 74 74 75 73 71 75 76 71 70
34 31 35 28 32 40 39 43 47 54 57 49 47 50 52 60 64 64 70 70 63 66 78 57 53 51 47 49 46 39 50 54 59 60 80 81 81 77 76 74 72 70 70
30 30 28 32 39 40 43 48 50 50 50 48 48 50 53 62 66 65 65 63 61 60 65 56 52 50 53 56 40 44 51 59 61 61 84 82 80 76 72 73 72 87 82
30 33 32 37 39 42 42 48 51 53 50 49 48 51 52 60 60 61 63 63 58 55 55 58 55 56 60 50 41 54 60 62 62 56 85 76 76 77 77 80 82 83 85
36 35 38 41 42 46 53 45 51 52 51 50 50 52 50 58 62 62 60 58 55 51 53 60 64 69 65 44 50 64 70 65 71 77 71 77 67 69 86 88 86 84 82
37 40 42 44 51 64 54 43 43 44 46 49 51 53 54 60 60 54 55 49 51 53 55 62 69 67 63 48 64 80 74 80 76 64 63 69 67 61 61 64 78 85 88
41 42 45 50 78 83 56 50 48 46 48 49 53 54 56 60 51 49 49 52 53 54 62 67 65 69 70 65 83 78 90 92 90 74 79 72 62 60 59 65 64 63 62
47 50 61 83 79 73 56 52 50 56 57 54 55 56 56 50 67 52 54 56 57 59 63 63 66 74 64 72 78 92 97 92 80 79 88 81 83 66 64 65 69 78 95
66 84 85 88 80 67 55 49 48 50 49 56 59 58 54 65 62 55 58 61 64 63 61 64 73 60 68 74 90 96 96 97 93 90 94 91 78 72 65 65 67 84 99
86 92 92 88 71 58 56 55 51 49 53 58 64 61 55 69 64 58 61 65 66 63 63 69 66 57 71 82 95 96 92 84 92 90 87 89 82 82 77 60 64 74 75
98 92 93 88 91 60 59 57 54 55 56 62 67 60 64 68 62 59 62 66 66 64 65 72 61 74 87 88 82 91 75 93 91 84 81 95 88 86 81 66 60 70 62
92 86 98 91 65 59 54 60 62 62 66 67 64 61 63 65 58 58 62 64 71 65 69 67 66 72 78 79 78 80 71 94 96 81 79 89 86 95 83 70 64 68 60
Wind_Speed
14 15 15 14 13 10 8 7 8 8 8 8 8 7 7 7 8 8 8 8 3 3 3 3 5 6 7 7 9 10 9 9 11 12 11 12 14 16 17 19 20 21 21
14 15 14 12 10 7 8 8 8 7 6 5 6 6 6 6 8 9 10 7 4 3 9 7 5 5 5 6 7 8 7 9 11 12 12 11 12 15 16 18 20 21 21
15 15 14 12 9 8 7 6 6 5 5 5 6 8 6 6 6 7 7 6 4 5 6 9 8 7 6 5 6 7 8 9 10 12 13 11 12 13 15 17 19 21 21
15 14 12 11 10 8 7 6 6 4 4 5 6 6 6 6 7 7 8 9 8 6 6 6 4 5 6 6 7 8 9 11 12 14 11 12 14 16 17 19 19 19 20
16 14 13 12 11 9 6 4 3 2 5 4 4 6 7 7 8 8 8 6 6 5 5 4 4 5 6 7 7 7 10 12 14 14 12 14 15 16 19 21 21 21 21
17 15 13 12 10 6 3 3 4 6 4 3 5 6 7 7 8 8 8 7 6 4 4 5 6 5 3 5 7 9 12 14 14 14 15 15 15 18 20 20 21 22 23
17 15 13 9 7 5 6 5 5 4 4 4 5 4 6 6 6 8 7 5 4 5 7 8 6 5 5 6 7 10 12 14 14 16 18 19 20 19 20 21 22 22 24
17 14 10 8 7 5 4 3 3 5 4 3 2 0 2 3 2 4 3 1 2 4 9 9 8 6 8 7 7 10 12 13 16 16 18 20 20 22 22 23 24 24 25
15 12 9 7 4 3 3 3 4 5 4 2 2 2 1 2 3 3 3 1 2 5 10 9 8 8 10 7 12 15 18 17 17 19 21 21 21 22 22 23 24 26 27
14 11 8 6 4 3 5 7 6 5 4 3 3 1 0 1 2 3 3 6 7 7 11 9 9 11 11 13 17 19 19 17 16 14 17 19 21 22 24 25 28 29 30
14 11 8 6 5 5 7 5 7 7 4 1 2 2 3 5 6 4 2 5 9 11 12 9 10 11 12 16 16 17 13 15 15 14 15 17 20 23 27 29 32 34 34
17 13 9 7 6 4 4 3 5 3 1 1 4 6 5 5 6 8 4 8 8 12 10 10 13 13 16 16 13 12 15 16 19 20 22 23 25 28 30 32 34 33 31
21 16 10 6 2 2 2 3 1 2 4 6 7 7 7 10 11 10 8 6 7 5 6 9 10 14 16 13 15 21 25 27 27 24 25 26 27 28 30 28 28 28 28
23 18 14 11 6 6 3 8 8 9 9 10 10 12 11 12 12 13 10 6 2 4 5 12 9 15 11 20 26 24 24 24 24 23 24 24 24 24 24 24 26 25 26
22 19 16 7 8 6 7 10 12 12 10 10 11 14 15 14 12 12 12 11 7 2 3 8 8 9 17 23 22 23 22 23 21 21 21 21 22 21 22 23 24 25 25
24 19 12 9 9 9 9 8 10 12 11 9 9 11 13 13 12 12 13 13 13 12 4 7 10 14 18 20 21 22 21 21 21 21 20 21 22 21 22 23 24 26 26
24 20 14 14 12 11 10 10 12 13 12 10 9 10 12 13 14 14 13 14 14 13 10 12 16 18 21 22 23 20 21 20 20 20 20 22 22 24 26 25 25 24 24
24 17 16 15 12 11 9 12 14 16 14 13 11 11 14 15 16 14 15 17 17 15 14 17 20 19 22 24 22 22 20 23 23 24 21 24 23 22 20 21 22 25 25
21 20 18 15 11 5 11 13 14 15 16 18 17 16 17 18 17 16 18 17 16 16 16 16 18 18 22 23 23 23 24 23 21 20 21 16 17 20 21 22 24 25 25
23 20 16 13 7 5 13 15 17 18 20 22 22 21 19 19 18 18 18 17 15 15 14 15 17 21 19 22 19 17 22 20 26 23 17 19 25 24 22 21 20 21 21
23 21 19 12 6 11 17 18 21 25 26 26 23 22 21 18 17 18 17 16 15 15 14 13 17 16 16 16 13 17 19 24 22 14 17 29 29 26 23 22 20 19 18
17 13 8 2 11 15 18 21 21 25 26 29 27 24 20 18 17 18 16 15 14 15 14 13 15 14 18 16 17 19 19 18 12 12 26 33 23 26 26 25 22 22 22
12 4 2 13 18 17 21 20 20 22 25 26 30 26 22 19 18 17 16 15 15 15 14 14 17 20 17 15 16 19 16 18 20 24 22 25 24 26 29 29 24 13 16
9 6 12 18 16 20 20 20 20 22 24 26 28 26 23 17 18 17 15 17 18 17 16 15 18 16 14 14 15 18 20 24 20 20 17 16 21 26 30 28 16 7 13
8 13 15 13 18 25 23 25 24 24 24 24 25 25 23 19 18 17 17 19 20 20 16 16 15 14 14 14 14 16 19 15 17 19 21 13 14 26 25 19 14 8 16
15 14 16 18 21 25 20 21 20 21 20 22 23 23 24 21 19 17 18 19 21 21 16 15 14 14 14 15 14 14 15 13 14 11 5 12 21 12 9 13 17 21 17
Wind_Direction
158 145 138 137 130 128 119 110 112 111 98 84 67 49 36 35 34 27 24 28 17 75 62 101 78 65 73 66 47 35 39 35 29 23 20 19 14 9 7 5 3 359 355
164 162 151 142 136 137 126 124 122 101 81 67 74 69 63 56 37 21 17 26 51 114 94 88 79 73 64 58 39 32 36 20 10 6 0 359 5 0 359 354 350 348 347
169 166 158 150 147 147 140 131 122 102 87 82 81 97 95 75 63 59 58 48 91 115 117 80 87 74 54 30 16 0 352 350 348 345 335 344 349 348 349 347 345 342 341
175 170 168 159 157 166 152 145 132 104 67 95 96 114 119 113 104 95 96 95 101 111 107 104 85 39 17 352 336 331 326 324 323 325 329 330 331 332 334 340 339 337 335
181 176 170 162 164 164 151 151 121 84 108 115 141 136 133 121 110 109 101 94 80 68 62 44 22 2 15 21 355 333 324 319 317 317 318 317 319 327 328 325 327 328 328
180 181 175 168 165 165 167 157 126 114 88 124 161 146 144 126 116 112 107 98 82 49 35 17 2 355 326 321 337 335 319 315 314 309 309 311 317 320 318 317 318 318 319
182 183 174 167 174 178 151 141 128 126 116 145 172 155 164 140 120 126 117 90 51 48 27 26 21 357 327 334 337 347 329 319 312 305 301 301 304 306 308 310 311 313 315
182 180 180 170 150 142 130 123 129 134 104 128 195 222 7 246 193 161 160 107 20 7 5 4 355 2 353 342 330 325 323 313 307 302 300 296 297 300 302 304 309 310 309
187 184 172 147 135 134 110 88 90 101 125 78 135 160 82 258 313 248 231 277 288 334 331 327 323 334 336 329 323 325 322 309 299 295 294 291 292 294 298 301 303 303 303
185 179 174 162 143 96 79 59 48 69 86 122 91 69 224 252 205 321 292 281 279 295 313 310 306 319 323 321 321 321 320 311 305 305 298 294 293 295 297 298 298 297 298
184 182 176 160 125 100 58 34 94 84 57 51 239 252 266 269 252 214 268 281 270 287 290 289 300 315 310 315 315 308 307 304 298 299 300 293 290 289 291 293 295 295 294
181 179 173 162 133 70 49 120 113 57 159 202 205 215 228 232 242 231 225 261 261 285 278 277 294 309 303 306 303 305 303 311 304 304 300 296 293 291 289 290 291 290 290
181 177 168 142 9 352 122 146 284 212 212 217 228 230 250 251 255 248 245 259 253 268 271 279 286 288 296 297 304 307 301 296 297 299 298 295 292 290 289 290 288 289 291
189 179 183 199 226 170 148 223 217 221 225 229 240 244 252 261 256 252 247 224 260 259 242 270 277 277 274 306 307 311 307 303 302 302 299 296 295 293 289 289 289 290 291
188 192 188 194 175 191 206 219 227 232 233 239 257 253 255 267 252 246 245 253 235 258 261 286 265 255 301 307 314 315 309 305 306 300 297 297 295 293 292 292 290 291 291
193 183 200 187 181 202 207 220 229 231 230 235 261 262 265 257 241 244 263 263 251 256 273 269 277 286 307 310 315 313 307 306 301 298 293 293 294 292 294 292 291 288 286
193 194 193 182 192 204 208 215 227 224 224 244 260 261 254 241 247 255 255 258 258 254 253 290 291 303 307 314 316 313 312 310 311 306 294 295 294 292 292 289 287 286 286
193 197 181 184 195 206 213 268 236 226 233 248 259 254 252 241 245 246 252 260 258 258 259 274 291 300 308 317 316 316 316 314 313 309 299 298 298 299 299 294 284 281 283
195 186 183 188 189 213 284 253 242 243 251 257 259 252 258 239 244 250 255 255 255 261 264 265 283 299 307 317 320 320 317 318 318 311 314 315 320 307 301 297 292 283 278
187 190 195 197 195 292 260 252 252 256 259 262 258 251 248 242 247 254 256 255 259 261 259 267 285 297 304 315 316 308 313 317 320 328 329 326 324 322 318 311 303 292 282
195 192 193 186 291 283 269 272 270 266 263 264 253 245 244 242 254 258 253 259 257 252 256 267 284 293 298 308 305 315 310 316 323 330 323 324 328 328 329 327 317 312 297
190 182 172 281 279 267 277 290 287 277 269 263 247 240 237 236 262 253 257 263 262 250 251 264 281 284 292 300 308 317 314 319 322 323 325 314 319 322 330 328 323 314 302
150 160 264 293 278 277 289 290 291 282 274 264 246 237 232 242 254 250 254 259 256 251 259 272 278 283 285 299 309 312 307 304 301 304 312 302 313 313 326 326 326 321 334
160 193 280 276 283 288 287 289 291 286 275 263 249 235 231 246 254 246 253 253 253 254 260 271 280 279 281 299 302 304 309 308 303 305 309 290 304 309 319 328 329 310 334
319 281 277 277 283 283 293 292 289 281 275 260 241 231 234 250 249 246 251 252 255 257 265 279 271 272 279 285 300 306 313 312 309 312 309 270 300 313 316 319 334 284 328
277 276 273 271 282 295 300 299 285 283 271 251 238 236 239 249 244 244 249 254 250 259 266 274 260 267 278 291 300 304 309 300 304 318 315 313 310 320 310 305 315 314 310